Location: Grand Saint-Jean
(43.6035°N, 5.3728°E)
Time: 03:05:34
(UTC+00:00)

Daily predictions for brighter satellites

Satellite Brightness Start Highest point End
(mag) Time Altitude Azimuth Time Altitude Azimuth Time Altitude Azimuth
CENTAUR R/B 4.5 02:03:00 23° ENE 02:03:00 23° ENE 02:05:57 10° NE
Cosmos 2344 3.9 02:37:40 58° NE 02:37:40 58° NE 02:43:51 10° NE
ATLAS 3B R/B 4.4 02:45:39 18° SE 02:48:20 24° ESE 02:53:25 10° ENE
USA 234 4.1 02:54:28 10° NE 02:59:22 40° N 02:59:22 40° N
ADEOS Rocket 3.9 02:55:57 10° SE 03:01:02 41° ENE 03:06:14 10° N
Cosmos 1833 Rocket 3.0 03:33:50 50° SSE 03:35:06 64° ESE 03:40:42 10° NNE
CZ-4B R/B 4.0 03:32:52 10° ESE 03:35:32 21° ENE 03:37:08 16° NNE
ALOS 4.2 03:31:51 10° NE 03:35:53 28° E 03:39:53 10° SSE
Cosmos 1626 3.7 03:39:55 33° E 03:39:55 33° E 03:43:05 10° NNE
NOSS 3-2 (C) 3.7 03:43:22 50° NNW 03:43:22 50° NNW 03:49:19 10° NNE
CENTAUR R/B 2.8 03:50:12 49° NW 03:50:24 49° NW 03:57:18 10° NNE
Cosmos 2369 4.0 03:49:30 17° NNW 03:53:57 66° ENE 03:59:34 10° SE
Cosmos 1656 3.8 03:55:16 55° SW 03:55:16 55° SW 04:00:06 10° S
Cosmos 2082 Rocket 2.8 03:52:35 10° S 03:58:02 55° ESE 04:03:31 10° NNE
Cosmos 1484 Rocket 4.0 03:54:45 10° NNE 03:58:25 41° E 04:02:00 10° S
Cosmos 1461 3.2 03:57:50 61° S 03:58:30 74° ESE 04:03:12 10° NE
CBERS 1 LM4 rocket 4.4 03:54:17 10° NNE 03:59:12 81° ESE 04:02:24 21° S
PSLV R/B 4.3 04:02:40 10° N 04:05:31 38° NNW 04:05:31 38° NNW
USA 290 3.2 04:06:41 44° ESE 04:06:55 45° ESE 04:10:02 10° NNE
ISS -2.7 04:09:06 41° NNE 04:09:06 41° NNE 04:11:32 10° NE
CZ-2C R/B 2.3 04:03:41 10° N 04:08:34 58° WNW 04:08:51 57° W
Cosmos 2251 Rocket 4.0 04:04:02 10° S 04:09:18 61° ESE 04:14:35 10° NNE
Lacrosse 4 Rocket 3.0 04:18:22 21° NNW 04:18:22 21° NNW 04:20:17 10° N
Cosmos 1697 Rocket 2.6 04:16:50 19° NNW 04:20:54 67° WSW 04:26:30 10° SSE
COSMOS 2406 3.5 04:21:37 38° W 04:22:51 44° WNW 04:28:16 10° NNE
Meteor 1-31 Rocket 3.3 04:19:18 10° NNE 04:23:13 61° E 04:27:06 10° S
[s.n.46727] 3.3 04:25:26 47° NE 04:25:26 47° NE 04:27:32 10° NE
[s.n.46723] 3.2 04:25:27 51° NE 04:25:27 51° NE 04:27:40 10° NE
[s.n.46707] 3.3 04:25:36 47° NE 04:25:36 47° NE 04:27:43 10° NE
[s.n.46708] 3.3 04:25:41 48° NE 04:25:41 48° NE 04:27:48 10° NE
[s.n.46719] 3.3 04:25:47 48° NE 04:25:47 48° NE 04:27:54 10° NE
[s.n.46724] 3.3 04:25:52 48° NE 04:25:52 48° NE 04:27:59 10° NE
[s.n.46687] 3.3 04:25:57 48° NE 04:25:57 48° NE 04:28:04 10° NE
[s.n.46696] 3.3 04:26:02 48° NE 04:26:02 48° NE 04:28:10 10° NE
[s.n.46720] 3.3 04:26:08 48° NE 04:26:08 48° NE 04:28:16 10° NE
[s.n.46676] 3.3 04:26:12 48° NE 04:26:12 48° NE 04:28:21 10° NE
Lacrosse 5 rocket 1.6 04:25:46 40° NNW 04:25:46 40° NNW 04:29:12 10° NE
[s.n.46721] 3.3 04:26:18 48° NE 04:26:18 48° NE 04:28:27 10° NE
[s.n.46728] 3.3 04:26:23 49° NE 04:26:23 49° NE 04:28:31 10° NE
[s.n.46690] 3.3 04:26:28 49° NE 04:26:28 49° NE 04:28:37 10° NE
[s.n.46694] 3.2 04:26:32 49° NE 04:26:32 49° NE 04:28:41 10° NE
[s.n.46702] 3.2 04:26:39 49° NE 04:26:39 49° NE 04:28:48 10° NE
[s.n.46679] 3.2 04:26:42 49° NE 04:26:42 49° NE 04:28:52 10° NE
[s.n.46704] 3.2 04:26:44 52° NE 04:26:44 52° NE 04:28:59 10° NE
[s.n.46712] 3.2 04:26:50 49° NE 04:26:50 49° NE 04:29:01 10° NE
[s.n.46711] 3.2 04:26:59 49° NE 04:26:59 49° NE 04:29:08 10° NE
[s.n.46684] 3.2 04:27:01 50° NE 04:27:01 50° NE 04:29:11 10° NE
Meteor 2-5 Rocket 3.6 04:20:46 10° SSW 04:26:26 77° W 04:32:18 10° N
[s.n.46706] 3.2 04:27:09 50° NE 04:27:09 50° NE 04:29:20 10° NE
[s.n.46678] 3.1 04:27:07 53° NE 04:27:07 53° NE 04:29:24 10° NE
[s.n.46677] 3.2 04:27:17 50° NE 04:27:17 50° NE 04:29:28 10° NE
[s.n.46671] 3.2 04:27:22 50° NE 04:27:22 50° NE 04:29:33 10° NE
[s.n.46675] 3.2 04:27:27 50° NE 04:27:27 50° NE 04:29:38 10° NE
[s.n.46674] 3.2 04:27:32 50° NE 04:27:32 50° NE 04:29:44 10° NE
[s.n.46698] 3.2 04:27:38 51° NE 04:27:38 51° NE 04:29:50 10° NE
[s.n.46699] 3.1 04:27:39 53° NNE 04:27:39 53° NNE 04:29:56 10° NE
[s.n.46715] 3.1 04:27:48 51° NNE 04:27:48 51° NNE 04:30:01 10° NE
[s.n.46714] 3.1 04:27:53 51° NNE 04:27:53 51° NNE 04:30:06 10° NE
[s.n.46726] 3.1 04:27:59 51° NNE 04:27:59 51° NNE 04:30:12 10° NE
[s.n.46703] 3.1 04:28:04 51° NNE 04:28:04 51° NNE 04:30:17 10° NE
[s.n.46713] 3.1 04:28:09 51° NNE 04:28:09 51° NNE 04:30:23 10° NE
[s.n.46717] 3.1 04:28:14 51° NNE 04:28:14 51° NNE 04:30:27 10° NE
[s.n.46691] 3.1 04:28:16 54° NNE 04:28:16 54° NNE 04:30:34 10° NE
[s.n.46693] 3.1 04:28:25 52° NNE 04:28:25 52° NNE 04:30:39 10° NE
CZ-4B R/B 4.4 04:24:05 10° NNE 04:27:55 39° E 04:31:55 10° SSE
[s.n.46672] 3.1 04:28:30 52° NNE 04:28:30 52° NNE 04:30:44 10° NE
[s.n.46701] 3.1 04:28:35 52° NNE 04:28:35 52° NNE 04:30:50 10° NE
[s.n.46685] 3.1 04:28:41 52° NNE 04:28:41 52° NNE 04:30:55 10° NE
[s.n.46709] 3.1 04:28:46 52° NNE 04:28:46 52° NNE 04:31:01 10° NE
[s.n.46683] 3.1 04:28:50 52° NNE 04:28:50 52° NNE 04:31:05 10° NE
[s.n.46695] 3.1 04:28:55 52° NNE 04:28:55 52° NNE 04:31:11 10° NE
[s.n.46688] 3.1 04:29:02 53° NNE 04:29:02 53° NNE 04:31:17 10° NE
[s.n.46729] 3.0 04:29:06 53° NNE 04:29:06 53° NNE 04:31:22 10° NE
[s.n.46697] 3.1 04:29:09 53° NNE 04:29:09 53° NNE 04:31:25 10° NE
[s.n.46725] 3.0 04:29:14 53° NNE 04:29:14 53° NNE 04:31:30 10° NE
[s.n.46682] 3.0 04:29:19 53° NNE 04:29:19 53° NNE 04:31:35 10° NE
[s.n.46680] 3.0 04:29:25 53° NNE 04:29:25 53° NNE 04:31:41 10° NE
[s.n.46718] 3.0 04:29:30 53° NNE 04:29:30 53° NNE 04:31:47 10° NE
[s.n.46710] 3.0 04:29:35 53° NNE 04:29:35 53° NNE 04:31:52 10° NE
[s.n.46673] 3.0 04:29:46 53° NNE 04:29:46 53° NNE 04:32:03 10° NE
[s.n.46700] 3.0 04:29:51 53° NNE 04:29:51 53° NNE 04:32:09 10° NE
[s.n.46705] 3.0 04:29:57 53° NNE 04:29:57 53° NNE 04:32:14 10° NE
[s.n.46692] 3.0 04:30:02 54° NNE 04:30:02 54° NNE 04:32:20 10° NE
[s.n.46686] 3.0 04:30:07 54° NNE 04:30:07 54° NNE 04:32:25 10° NE
[s.n.46716] 3.0 04:30:12 54° NNE 04:30:12 54° NNE 04:32:31 10° NE
[s.n.46722] 3.0 04:30:17 54° NNE 04:30:17 54° NNE 04:32:36 10° NE
[s.n.46689] 3.0 04:30:23 54° NNE 04:30:23 54° NNE 04:32:42 10° NE
[s.n.46681] 3.0 04:30:28 54° NNE 04:30:28 54° NNE 04:32:48 10° NE
FENGYUN 3A 3.6 04:25:12 10° NNE 04:30:40 85° WNW 04:36:06 10° SSW
SAR-Lupe-4 3.5 04:33:08 10° SSE 04:36:42 85° ENE 04:40:18 10° NNW
ATLAS 3B R/B 2.5 04:32:59 16° SW 04:38:24 69° NW 04:45:04 10° NNE
ERS-2 2.4 04:35:07 10° S 04:38:35 42° W 04:39:17 37° WNW
Cosmos 1726 Rocket 3.5 04:36:07 10° NNW 04:40:35 75° W 04:45:00 10° S
USA 234 4.5 04:37:16 10° NE 04:42:36 28° N 04:46:42 15° NW
Cosmos 967 Rocket 4.4 04:37:13 12° NW 04:43:03 63° WSW 04:49:13 10° SSE
Cosmos 1980 Rocket 2.1 04:38:05 10° NNW 04:43:43 81° WSW 04:49:18 10° SSE
ATLAS CENTAUR R/B 4.0 04:41:28 10° SSE 04:44:22 20° ESE 04:47:10 10° ENE
Abrixas rocket 1.7 04:43:59 50° NW 04:44:37 80° NNE 04:47:26 10° ESE
Meteor 2-13 Rocket 4.4 04:38:40 10° SSW 04:44:45 63° W 04:50:51 10° N
Cosmos 2228 3.2 04:41:28 10° NNW 04:45:40 47° W 04:49:52 10° SSW
Cosmos 1092 Rocket 3.9 04:39:34 10° SSW 04:45:42 71° W 04:51:57 10° N
Geosat 4.1 04:41:03 10° S 04:45:55 52° WSW 04:50:50 10° NW
ADEOS Rocket 3.5 04:42:09 10° SSW 04:46:45 27° W 04:51:26 10° NW
Nadezhda 4 Rocket 4.3 04:44:24 10° SW 04:50:05 40° WNW 04:55:51 10° N
ADEOS 3.7 04:46:34 10° N 04:51:40 53° WNW 04:56:43 10° SW
Aureole 3 3.7 04:49:54 10° N 04:54:10 82° W 04:59:38 10° S
CZ-3 R/B 3.8 04:35:59 14° WSW 04:54:24 38° SSW 05:01:24 10° SE
SAR-Lupe-1 4.0 04:51:05 10° S 04:54:36 61° WSW 04:58:09 10° NNW
Cosmos 1606 Rocket 4.0 04:52:10 10° NNW 04:56:21 39° W 05:00:30 10° SSW
Cosmos 1400 Rocket 2.8 04:53:11 10° NNW 04:57:03 55° W 05:00:51 10° S
CZ-4B R/B 4.0 04:53:16 10° N 04:57:21 53° WNW 05:01:15 10° SSW
NOSS 8 (A) 4.0 04:54:32 10° SW 04:57:53 81° NW 05:00:51 10° NE
TELKOM 3 4.4 05:01:47 23° WNW 05:03:28 43° NNW 05:07:16 10° ENE
COSMO-SKYMED 1 2.5 05:00:31 10° S 05:04:50 69° WSW 05:09:11 10° NNW
CZ-4B R/B 2.6 05:04:50 10° SSW 05:07:39 23° W 05:10:16 11° NW
Cosmos 1300 3.5 05:07:10 10° NNW 05:10:29 28° W 05:13:46 10° SSW
ARGOS Delta rocket 4.2 05:05:31 10° N 05:10:49 56° WNW 05:16:10 10° SSW
ALOS 3.0 05:09:09 10° N 05:13:17 32° WNW 05:17:23 10° SW
Cosmos 2278 4.0 05:08:43 10° NW 05:14:03 44° WSW 05:19:23 10° S
Cosmos 1689 Rocket 2.3 05:11:29 10° S 05:14:18 42° W 05:17:07 10° NNW
Cosmos 1626 3.7 05:14:34 15° W 05:15:06 16° WNW 05:17:24 10° NNW
Meteor 2-10 Rocket 3.5 05:10:19 10° N 05:15:22 89° E 05:20:29 10° S
Cosmos 2322 Rocket 3.3 05:10:13 10° NNW 05:15:41 45° ENE 05:21:05 10° SE
Cosmos 1833 Rocket 3.9 05:15:37 12° W 05:19:31 23° NW 05:23:56 10° N
MOS 1 Rocket 4.1 05:16:01 10° SSE 05:20:08 48° ENE 05:24:16 10° N
Meteor 2-8 Rocket 4.5 05:15:01 10° NNW 05:21:07 64° W 05:27:10 10° S
deb Chang Zheng 4 4.5 05:19:42 10° N 05:23:15 26° WNW 05:26:48 10° WSW
Cosmos 2084 3.9 05:19:51 10° WSW 05:23:59 43° NW 05:28:12 10° NNE
H-2A R/B 3.1 05:24:07 10° NNE 05:28:29 65° ESE 05:32:39 10° S
Cosmos 1315 Rocket 2.8 05:24:46 10° NNW 05:28:53 74° W 05:33:00 10° S
SJ-12 4.5 05:25:20 10° N 05:29:07 36° WNW 05:32:51 10° SW
Okean 1-7 Rocket 4.1 05:25:37 10° SW 05:29:51 38° WNW 05:34:05 10° N
Cosmos 2058 Rocket 3.7 05:26:46 10° NNW 05:30:50 34° W 05:34:52 10° SSW
SL-27 R/B 3.1 05:27:26 10° S 05:30:57 61° ESE 05:34:33 10° NNE
Cosmos 1484 Rocket 4.4 05:30:09 10° NNW 05:32:28 16° WNW 05:34:46 10° WSW
H-2A R/B 2.7 05:31:27 10° N 05:35:17 76° WNW 05:39:08 10° SSW
Cosmos 1553 Rocket 4.0 05:32:19 10° NNW 05:38:19 60° W 05:44:15 10° S
Meteor 2-15 Rocket 4.5 05:36:33 10° N 05:42:41 82° W 05:48:45 10° S
ATLAS 5 CENTAUR R/B 4.4 05:35:46 10° SSW 05:50:59 54° SE 05:55:12 10° NE
